Regional Weather Roundup
Issued by NWS

Home | Current Version | Previous Version | Graphics & Text | Print | Product List | Glossary On
Versions: 1 2 3 4 5 6 7 8 9 10 11 12 13 14 15 16 17 18 19 20 21 22 23 24 25 26 27 28 29 30 31 32 33 34 35 36 37 38 39 40 41 42 43 44 45 46 47 48 49 50
000
ASUS44 KMEG 300900
RWRTN
TENNESSEE HOURLY STATE WEATHER ROUNDUP
NATIONAL WEATHER SERVICE MEMPHIS TN
400 AM CDT THU OCT 30 2014

TNZ002-004-019-021-049-052-054-088>092-301000-
WEST TENNESSEE

CITY           SKY/WX    TMP DP  RH WIND       PRES   REMARKS
MEMPHIS INTL   CLEAR     50  41  71 N5        30.14R
NWS MEMPHIS      N/A     43 N/A N/A MISG        N/A
JACKSON        CLEAR     40  38  93 CALM      30.15S FOG
DYERSBURG      CLEAR     43  28  56 E3        30.17S
UNION CITY     CLEAR     37  37 100 CALM      30.15R
PARIS          CLEAR     34  34 100 CALM      30.15S
SAVANNAH       CLEAR     36  36 100 CALM      30.13F
$$

TNZ008-025-027-028-033-062-065-066-301000-
NORTH MIDDLE TENNESSEE

CITY           SKY/WX    TMP DP  RH WIND       PRES   REMARKS
NASHVILLE      CLEAR     41  39  93 CALM      30.14S
CLARKSVILLE    CLEAR     37  36  96 CALM      30.15R
COOKEVILLE     CLEAR     34  34 100 CALM      30.12R
CROSSVILLE     CLEAR     39  35  86 CALM      30.10S
$$

TNZ061-075-076-078-094-096-097-301000-
SOUTH MIDDLE TENNESSEE

CITY           SKY/WX    TMP DP  RH WIND       PRES   REMARKS
SHELBYVILLE    CLEAR     37  36  93 CALM      30.13S
$$

TNZ017-018-042-046-047-301000-
NORTHEAST TENNESSEE

CITY           SKY/WX    TMP DP  RH WIND       PRES   REMARKS
TRI CITIES     FOG       40  40 100 CALM      30.08S VSB 1/16
ELIZABETHTON   FOG       32  32 100 CALM      30.08S VSB 1
$$

TNZ012-013-036-069-073-074-301000-
CENTRAL EAST TENNESSEE

CITY           SKY/WX    TMP DP  RH WIND       PRES   REMARKS
KNOXVILLE      CLEAR     41  39  93 CALM      30.09S
OAK RIDGE      FOG       42  40  92 CALM      30.11S VSB 1/2
GATLINBURG     SUNNY     36  36 100 CALM      30.09S
$$

TNZ083-085-099-301000-
SOUTHEAST TENNESSEE

CITY           SKY/WX    TMP DP  RH WIND       PRES   REMARKS
CHATTANOOGA    CLEAR     42  40  92 N3        30.10S
$$

SKY/WX REPORTED AS FAIR MEANS FEW OR NO CLOUDS BELOW
12 THOUSAND FEET.




USA.gov is the U.S. government's official web portal to all federal, state and local government web resources and services.